This is the latest recevied weather packets stored in our database for station/object HP1CDW-11. If no packets are shown the sender has not sent any weather packets the latest 10 day(s).
| Time | Temp. | Humidity | Pressure | Rain* | Wind** | Luminosity | Snow |
|---|---|---|---|---|---|---|---|
| 1777409227 | 33.33° C | 45% | 1007.4 hPa | - | - | - | - |
| 1777408627 | 33.33° C | 45% | 1007.5 hPa | - | - | - | - |
| 1777408026 | 33.33° C | 45% | 1007.5 hPa | - | - | - | - |
| 1777407426 | 33.33° C | 45% | 1007.5 hPa | - | - | - | - |
| 1777406826 | 33.33° C | 45% | 1007.4 hPa | - | - | - | - |
| 1777406225 | 33.33° C | 45% | 1007.5 hPa | - | - | - | - |
| 1777405625 | 33.33° C | 45% | 1007.7 hPa | - | - | - | - |
| 1777405025 | 33.33° C | 44% | 1007.6 hPa | - | - | - | - |
| 1777404424 | 32.78° C | 44% | 1007.8 hPa | - | - | - | - |
| 1777403824 | 32.78° C | 42% | 1008 hPa | - | - | - | - |
| 1777403224 | 32.78° C | 42% | 1008.1 hPa | - | - | - | - |
| 1777402623 | 32.78° C | 43% | 1008.3 hPa | - | - | - | - |
| 1777402023 | 32.22° C | 38% | 1008.5 hPa | - | - | - | - |
| 1777401423 | 32.22° C | 44% | 1008.8 hPa | - | - | - | - |
| 1777400822 | 32.22° C | 44% | 1008.9 hPa | - | - | - | - |
| 1777400222 | 32.22° C | 44% | 1009.1 hPa | - | - | - | - |
| 1777399622 | 32.22° C | 44% | 1009.3 hPa | - | - | - | - |
| 1777399021 | 32.22° C | 43% | 1009.4 hPa | - | - | - | - |
| 1777398421 | 31.67° C | 43% | 1009.5 hPa | - | - | - | - |
| 1777397821 | 31.67° C | 43% | 1009.7 hPa | - | - | - | - |
| 1777397220 | 31.67° C | 42% | 1009.9 hPa | - | - | - | - |
| 1777396620 | 31.67° C | 42% | 1010.1 hPa | - | - | - | - |
| 1777396019 | 31.67° C | 42% | 1010.4 hPa | - | - | - | - |
| 1777395420 | 31.11° C | 43% | 1010.3 hPa | - | - | - | - |
| 1777394819 | 31.11° C | 41% | 1010.3 hPa | - | - | - | - |
* Rain since midnight (hover to see other rain measurements)
** Current wind speed in m/s (hover to see current wind gust speed)